Temp_Advection
nan nan nan nan nan nan nan nan nan nan nan nan nan nan nan nan nan nan nan nan nan nan nan nan nan nan nan nan nan nan nan nan nan
nan -0 -1 -1 -0 -0 -0 -0 -0 0 -0 -0 -0 -0 -0 0 0 0 -0 -0 -0 -0 -0 -0 -0 -0 0 0 -0 -0 -0 -0 nan
nan 0 -0 -1 0 0 0 0 -0 -0 -0 -0 -0 -0 -0 -0 -0 -0 -0 -0 -0 -0 -0 -0 -0 -0 -0 -0 -0 -0 -0 -0 nan
nan -0 0 0 -0 0 0 0 0 -0 0 0 0 -0 0 0 -0 -0 -0 -0 -0 -0 -0 -0 -0 -0 -0 -0 -0 -0 -0 -0 nan
nan -0 0 0 -0 -0 0 -0 0 0 0 0 0 0 0 0 0 0 -0 -0 -0 -0 -0 -0 -0 -0 -0 -0 -0 -0 -0 -0 nan
nan 0 0 0 -0 0 0 0 0 0 0 0 0 0 0 0 0 0 0 0 0 -0 -0 -0 -0 -0 -0 -0 -0 -0 -0 -0 nan
nan 0 0 0 0 0 0 0 0 -0 0 0 0 0 0 0 0 0 0 0 0 0 -0 -0 -0 -0 -0 -0 -0 -0 -0 -0 nan
nan 0 0 0 0 0 0 0 0 0 0 0 0 0 0 0 0 0 0 0 0 0 0 0 -0 -0 0 -0 -0 -0 -0 -0 nan
nan 0 -0 -0 0 0 0 0 0 0 0 0 0 0 0 0 0 0 0 0 0 0 0 0 0 0 0 0 -0 -0 -0 -0 nan
nan 0 0 -0 0 0 0 0 0 0 0 0 0 0 0 0 0 0 0 0 0 -0 -0 -0 0 0 0 0 0 0 0 0 nan
nan 0 0 -0 -0 0 0 0 0 0 0 0 0 0 0 0 0 0 0 0 0 0 0 0 0 0 -0 -0 0 0 0 0 nan
nan 1 -0 -0 0 0 1 0 0 0 0 0 0 0 0 0 0 0 0 0 0 0 -0 0 0 0 0 -0 -0 0 0 -0 nan
nan 1 1 0 0 1 0 0 -0 -0 -0 0 -0 0 0 0 0 0 0 0 -0 -0 0 0 0 0 0 0 0 0 0 0 nan
nan 0 0 0 1 0 0 0 0 -0 -0 0 0 0 0 0 0 0 -0 -0 0 0 0 0 0 0 0 0 0 0 0 0 nan
nan 0 0 1 1 0 0 0 0 -1 0 1 0 0 0 0 0 -0 -0 -0 -0 -0 0 0 0 0 0 0 0 0 0 0 nan
nan 1 0 1 0 -0 0 0 -0 -0 0 0 0 0 0 -0 -0 -0 -0 -0 -0 -0 0 0 0 -0 0 0 0 0 0 0 nan
nan 1 1 1 -0 -1 -0 0 -0 -0 0 0 0 -0 -0 -0 -0 -0 -0 -0 0 0 0 0 -0 -0 0 0 0 0 0 0 nan
nan -1 1 2 -0 -0 0 0 -1 -0 0 0 0 -0 -0 -0 -0 -0 -0 0 0 0 0 0 -0 -0 0 0 1 0 0 -0 nan
nan -1 1 2 1 0 -1 -1 0 1 0 0 -0 -1 -0 0 -0 0 0 0 0 0 0 0 -0 0 0 0 0 0 0 0 nan
nan nan nan nan nan nan nan nan nan nan nan nan nan nan nan nan nan nan nan nan nan nan nan nan nan nan nan nan nan nan nan nan nan
Wind_Speed
10 13 17 17 16 15 18 16 15 14 12 10 10 8 6 5 5 6 7 7 9 9 9 9 10 10 10 10 10 11 11 11 10
10 11 17 17 15 16 19 17 15 14 11 10 9 6 4 4 5 6 6 7 7 8 8 8 9 9 9 10 11 11 11 10 10
12 12 14 14 16 19 19 17 15 12 10 8 7 6 5 5 5 5 5 5 6 6 6 7 8 8 9 10 10 10 10 9 10
15 13 13 15 17 18 18 17 14 11 9 7 7 6 5 6 5 5 4 4 4 4 5 6 7 7 7 8 8 9 9 8 9
19 15 15 16 19 18 18 17 15 12 10 9 8 7 6 6 4 4 3 3 2 2 3 4 6 5 5 7 8 7 7 8 9
21 18 17 18 19 20 19 18 17 15 13 11 9 8 7 6 5 4 3 2 1 1 2 3 3 3 3 5 7 6 6 7 8
22 20 19 20 21 21 21 19 19 17 14 12 10 9 7 7 5 4 3 3 2 2 2 3 3 4 3 4 5 5 6 7 8
23 23 23 23 24 24 23 22 21 18 16 14 12 11 9 7 6 5 4 3 3 3 3 4 4 3 5 5 5 5 6 7 8
28 26 28 26 28 27 26 24 21 20 18 17 15 14 11 10 9 7 6 4 3 3 4 5 5 5 5 6 6 5 6 7 7
29 30 32 30 30 30 28 26 24 22 20 18 17 16 14 12 12 10 7 5 3 1 4 6 7 6 6 8 9 8 7 7 7
32 33 34 34 32 32 30 28 26 24 22 20 18 17 17 15 13 12 10 7 7 5 6 6 5 4 7 10 10 9 10 9 8
35 36 37 37 33 34 33 30 28 26 24 23 21 20 19 18 15 13 11 10 9 8 8 6 8 10 13 15 12 12 11 9 8
37 38 40 41 37 35 36 33 31 29 26 25 23 22 21 20 19 17 14 13 13 13 11 11 13 14 17 18 13 12 12 8 8
37 45 47 45 42 38 37 35 33 30 28 26 23 22 23 21 21 19 18 16 17 16 15 14 15 16 18 19 13 13 13 10 9
36 47 48 52 43 37 39 38 35 32 28 25 23 22 23 22 23 21 20 18 18 17 15 15 15 18 18 14 12 14 11 10 8
37 46 43 48 37 33 41 39 36 35 30 25 27 26 25 24 25 25 24 22 21 21 18 17 17 17 15 12 11 11 12 13 12
49 43 50 43 38 35 39 41 38 38 32 29 26 21 26 28 28 28 27 25 23 23 21 20 18 17 14 12 12 14 14 12 13
53 44 46 44 42 37 38 42 40 40 36 32 22 13 15 19 30 30 29 25 25 25 24 21 20 18 15 14 14 13 14 14 14
47 45 43 45 41 39 40 38 41 41 36 33 33 30 12 11 10 26 32 28 27 27 26 24 23 21 18 16 15 13 16 16 13
41 45 46 45 42 38 41 43 41 39 39 36 35 36 35 24 16 12 16 23 29 32 30 27 26 24 21 18 17 15 17 15 13
Wind_Direction
190 174 163 167 161 162 156 154 147 142 140 143 141 138 125 107 103 96 93 87 80 76 71 63 57 55 57 54 54 55 58 59 58
194 192 172 168 168 158 158 158 155 150 146 141 144 148 139 123 109 102 95 88 82 74 67 58 53 56 54 58 60 60 58 55 52
193 196 175 164 164 162 164 165 165 162 159 152 150 144 131 127 117 109 97 86 77 69 61 55 52 54 60 64 61 58 54 48 45
201 198 192 176 174 172 173 174 177 176 169 163 162 161 150 145 140 126 107 91 78 65 55 47 47 52 60 57 50 50 51 44 41
208 205 206 193 185 185 184 184 188 188 185 181 177 176 174 167 157 151 140 117 83 56 48 41 38 46 51 44 40 43 47 45 39
212 215 212 203 195 192 192 191 192 195 199 194 193 189 189 191 188 174 173 181 168 12 14 21 23 28 38 30 27 27 30 24 23
223 221 213 209 200 198 195 196 196 201 208 208 204 202 199 202 207 207 212 221 233 277 318 335 347 359 342 7 8 9 6 1 3
228 226 216 213 207 202 200 201 204 205 209 217 218 215 218 217 219 224 223 232 244 275 296 306 319 332 326 332 345 342 341 340 342
228 229 223 217 212 207 205 206 208 209 211 217 222 226 226 228 224 225 224 239 261 281 282 284 295 298 326 321 323 324 316 322 327
228 234 228 222 218 214 211 211 211 213 215 219 225 230 232 234 233 227 225 236 239 326 307 261 260 291 304 314 309 305 308 300 314
224 236 230 227 225 222 218 216 213 214 218 222 225 227 230 235 234 226 226 233 228 278 325 275 252 299 309 310 295 286 284 288 293
230 230 235 235 232 229 221 219 217 217 221 225 227 228 231 234 231 228 232 226 234 250 289 297 284 300 305 311 293 274 269 272 285
240 231 234 237 233 230 224 222 221 221 223 228 229 233 231 234 235 237 231 232 238 248 264 275 293 301 303 305 287 270 265 258 277
244 239 230 235 231 231 230 227 225 224 226 230 229 235 230 235 236 238 235 235 242 248 255 280 282 293 298 295 277 253 249 251 272
243 235 227 233 230 233 236 230 229 230 228 231 235 234 232 235 238 242 239 243 242 244 260 271 281 292 292 283 264 238 239 249 264
244 237 241 238 216 226 241 235 228 232 226 231 238 235 235 238 238 240 238 241 243 241 257 268 277 289 277 272 262 246 244 249 260
243 237 235 235 217 231 238 235 232 232 227 228 237 245 241 238 240 242 243 244 242 244 253 263 271 283 269 259 244 237 241 253 258
238 236 234 231 214 212 231 233 231 232 230 227 227 224 232 244 243 242 245 243 240 239 250 251 264 272 264 259 250 249 248 257 269
237 237 236 226 208 218 220 237 234 231 233 229 231 231 236 222 232 239 242 244 243 245 248 251 253 252 254 250 246 250 254 258 265
235 237 234 216 205 215 222 231 230 232 236 233 235 233 236 242 234 238 243 246 250 247 248 249 247 241 243 245 244 251 251 255 258
Height
1540 1541 1543 1544 1545 1545 1546 1549 1550 1553 1555 1556 1557 1559 1559 1559 1559 1559 1559 1559 1559 1558 1558 1557 1557 1556 1555 1555 1554 1553 1552 1551 1550
1540 1541 1542 1544 1544 1545 1548 1549 1551 1553 1555 1556 1558 1559 1559 1560 1560 1560 1560 1560 1560 1559 1559 1558 1557 1557 1556 1555 1555 1554 1553 1552 1551
1540 1541 1542 1544 1545 1546 1548 1550 1552 1554 1555 1556 1557 1559 1559 1560 1560 1561 1561 1561 1561 1560 1560 1559 1558 1557 1557 1557 1556 1555 1554 1553 1552
1540 1541 1543 1544 1546 1548 1549 1550 1552 1553 1555 1556 1557 1558 1559 1560 1560 1561 1561 1562 1561 1561 1561 1560 1559 1558 1558 1558 1557 1556 1555 1554 1554
1539 1540 1542 1544 1545 1548 1549 1550 1552 1553 1555 1556 1557 1558 1559 1560 1560 1560 1561 1561 1561 1561 1561 1561 1560 1560 1559 1559 1558 1557 1556 1555 1555
1538 1539 1541 1543 1545 1547 1549 1550 1551 1552 1554 1556 1557 1558 1559 1559 1560 1560 1560 1561 1561 1561 1561 1561 1560 1560 1559 1559 1559 1558 1558 1557 1556
1537 1538 1539 1541 1543 1546 1547 1549 1550 1551 1553 1555 1556 1557 1558 1558 1559 1560 1560 1560 1560 1560 1561 1561 1561 1560 1560 1559 1559 1558 1558 1557 1556
1535 1536 1537 1538 1540 1542 1545 1547 1549 1550 1551 1553 1554 1556 1557 1558 1558 1559 1559 1559 1559 1560 1560 1560 1560 1560 1560 1559 1558 1558 1557 1557 1556
1531 1533 1534 1536 1536 1539 1541 1545 1547 1548 1549 1551 1552 1554 1555 1556 1556 1557 1558 1558 1558 1558 1559 1559 1559 1559 1559 1559 1558 1557 1557 1556 1556
1527 1530 1532 1532 1535 1536 1538 1541 1544 1546 1547 1548 1549 1551 1553 1554 1554 1555 1556 1557 1557 1557 1557 1557 1557 1558 1557 1557 1557 1556 1555 1553 1554
1522 1526 1528 1530 1531 1534 1536 1538 1540 1543 1545 1546 1546 1548 1550 1551 1552 1553 1554 1555 1555 1556 1556 1556 1556 1557 1557 1556 1554 1553 1553 1553 1552
1517 1520 1523 1525 1527 1530 1533 1535 1537 1539 1541 1542 1543 1545 1546 1548 1550 1551 1551 1552 1553 1553 1553 1553 1554 1554 1555 1554 1552 1551 1550 1551 1550
1514 1514 1517 1520 1522 1525 1529 1531 1533 1534 1536 1539 1540 1541 1543 1545 1546 1547 1548 1549 1550 1551 1551 1551 1551 1551 1551 1550 1549 1549 1548 1548 1548
1508 1506 1509 1513 1515 1521 1524 1528 1530 1531 1532 1535 1536 1537 1538 1540 1542 1543 1544 1545 1546 1547 1548 1548 1548 1547 1547 1548 1546 1545 1544 1545 1545
1500 1502 1502 1500 1507 1515 1520 1524 1527 1529 1529 1531 1532 1533 1533 1535 1537 1539 1541 1541 1543 1543 1544 1545 1545 1544 1543 1543 1543 1542 1542 1543 1543
1493 1496 1499 1496 1500 1507 1515 1520 1522 1525 1525 1528 1528 1528 1529 1529 1531 1533 1535 1536 1538 1540 1540 1541 1541 1540 1539 1539 1540 1540 1539 1539 1540
1483 1486 1490 1494 1497 1500 1507 1514 1517 1519 1522 1523 1525 1524 1525 1523 1524 1527 1529 1530 1532 1534 1536 1536 1537 1537 1536 1536 1537 1537 1536 1536 1536
1471 1477 1481 1485 1488 1490 1499 1506 1510 1513 1516 1519 1521 1520 1518 1517 1518 1521 1523 1524 1526 1528 1530 1531 1532 1533 1533 1533 1534 1534 1534 1533 1533
1464 1470 1473 1479 1482 1489 1494 1499 1504 1507 1510 1514 1513 1514 1514 1513 1512 1515 1517 1519 1520 1523 1524 1526 1528 1529 1530 1530 1530 1529 1530 1529 1529
1459 1463 1466 1470 1476 1485 1491 1494 1498 1501 1505 1505 1506 1509 1509 1509 1509 1509 1511 1513 1514 1516 1519 1521 1523 1523 1525 1525 1526 1525 1526 1526 1525